Weather History for Tampa Macdill AFB, FL

Change the Weather History Date:

Thursday, February 28, 2013

  Actual Average Record
Temperature  
Mean Temperature 67 °F -  
Max Temperature 75 °F 73 °F 86 °F (1997)
Min Temperature 59 °F 55 °F 37 °F (2002)
Cooling Degree Days 2    
Growing Degree Days 17 (Base 50)    
Moisture  
Dew Point 54 °F    
Average Humidity 69    
Maximum Humidity 85    
Minimum Humidity 47    
Precipitation  
Precipitation 0.00 in - - ()
Sea Level Pressure  
Sea Level Pressure 29.98 in    
Wind  
Wind Speed 8 mph (NW)    
Max Wind Speed 16 mph    
Max Gust Speed 22 mph    
Visibility 10 miles    
Events      
Averages and records for this station are not official NWS values.
T = Trace of Precipitation, MM = Missing Value Source: NWS Daily Summary

Daily Weather History Graph

Daily Weather History Graph

Search for Another Location

Airport:

Trip Planner

Search our weather history database for the weather conditions in past years. The results will help you decide how hot, cold, wet, or windy it might be!

Date:

Astronomy

Feb. 28, 2013 Rise Set
Actual Time 6:55 AM EST 6:30 PM EST
Civil Twilight 6:31 AM EST 6:53 PM EST
Nautical Twilight 6:04 AM EST 7:20 PM EST
Astronomical Twilight 5:37 AM EST 7:48 PM EST
Moon 9:32 PM EST (2/28) 8:24 AM EST (2/28)
Length of Visible Light 12h 21m
Length of Day
11h 34m
Waning Gibbous, 91% of the Moon is Illuminated
Feb 28
Waning Gibbous
Mar 4
Last Quarter
Mar 11
New
Mar 19
First Quarter
Mar 27
Full

Hourly Weather History & Observations

Time (EST) Temp. Dew Point Humidity Pressure Visibility Wind Dir Wind Speed Gust Speed Precip Events Conditions
12:57 AM 60.1 °F 54.7 °F 82% 29.99 in 10.0 mi NNW 8.1 mph - N/A   Clear
1:57 AM 59.5 °F 55.0 °F 85% 29.98 in 10.0 mi NW 5.8 mph - N/A   Clear
2:58 AM 59.7 °F 54.3 °F 82% 29.97 in 10.0 mi NNW 9.2 mph - N/A   Partly Cloudy
3:58 AM 59.7 °F 54.7 °F 83% 29.96 in 10.0 mi NNW 5.8 mph - N/A   Scattered Clouds
4:58 AM 59.5 °F 55.0 °F 85% 29.97 in 10.0 mi NW 4.6 mph - N/A   Partly Cloudy
5:58 AM 59.0 °F 54.5 °F 85% 29.98 in 10.0 mi NNW 5.8 mph - N/A   Clear
6:58 AM 59.0 °F 53.6 °F 82% 29.99 in 10.0 mi North 4.6 mph - N/A   Partly Cloudy
7:58 AM 59.0 °F 53.6 °F 82% 30.01 in 10.0 mi Calm Calm - N/A   Mostly Cloudy
8:58 AM 63.5 °F 56.7 °F 78% 30.03 in 10.0 mi North 3.5 mph - N/A   Partly Cloudy
9:58 AM 69.8 °F 55.4 °F 60% 30.03 in 10.0 mi NNW 10.4 mph - N/A   Clear
10:58 AM 71.6 °F 55.4 °F 57% 30.01 in 10.0 mi NNW 8.1 mph - N/A   Clear
11:57 AM 72.1 °F 53.8 °F 52% 30.01 in - NW 12.7 mph - N/A   Clear
11:58 AM 73.4 °F 53.6 °F 50% 30.01 in 10.0 mi NW 10.4 mph - N/A   Clear
12:58 PM 73.4 °F 55.4 °F 53% 29.99 in 10.0 mi NNW 9.2 mph - N/A   Clear
1:58 PM 75.2 °F 53.6 °F 47% 29.96 in 10.0 mi NW 16.1 mph 21.9 mph N/A   Clear
2:58 PM 73.4 °F 53.6 °F 50% 29.95 in 10.0 mi NNW 10.4 mph - N/A   Clear
3:58 PM 71.6 °F 51.8 °F 50% 29.95 in 10.0 mi NW 9.2 mph 18.4 mph N/A   Clear
4:58 PM 69.8 °F 53.6 °F 56% 29.94 in 10.0 mi NNW 11.5 mph - N/A   Clear
5:58 PM 68.0 °F 53.6 °F 60% 29.96 in 10.0 mi NW 12.7 mph 18.4 mph N/A   Clear
6:58 PM 64.4 °F 55.4 °F 73% 29.97 in 10.0 mi NW 10.4 mph 19.6 mph N/A   Clear
7:58 PM 62.6 °F 53.6 °F 72% 29.99 in 10.0 mi NW 13.8 mph 18.4 mph N/A   Clear
8:58 PM 60.8 °F 51.8 °F 72% 29.98 in 10.0 mi NW 9.2 mph - N/A   Clear
9:58 PM 59.0 °F 50.0 °F 72% 30.00 in 10.0 mi WNW 9.2 mph - N/A   Clear
10:58 PM 59.0 °F 51.8 °F 77% 29.99 in 10.0 mi NW 6.9 mph - N/A   Clear
11:58 PM 59.0 °F 50.0 °F 72% 29.98 in 10.0 mi NNW 8.1 mph - N/A   Partly Cloudy